This is the latest recevied weather packets stored in our database for station/object KK7DS. If no packets are shown the sender has not sent any weather packets the latest 10 day(s).
| Time | Temp. | Humidity | Pressure | Rain* | Wind** | Luminosity | Snow |
|---|---|---|---|---|---|---|---|
| 1777824308 | 17.78° C | 72% | 1012.7 hPa | 0 mm | - | - | - |
| 1777823730 | 17.22° C | 77% | 1012.7 hPa | 0 mm | - | - | - |
| 1777823163 | 17.22° C | 76% | 1012.8 hPa | 0 mm | - | - | - |
| 1777822630 | 17.22° C | 77% | 1012.8 hPa | 0 mm | - | - | - |
| 1777822133 | 17.22° C | 78% | 1012.8 hPa | 0 mm | - | - | - |
| 1777821090 | 16.67° C | 80% | 1012.7 hPa | 0 mm | - | - | - |
| 1777820514 | 16.11° C | 81% | 1012.8 hPa | 0 mm | - | - | - |
| 1777820010 | 15.56° C | 83% | 1012.7 hPa | 0 mm | - | - | - |
| 1777819434 | 15° C | 84% | 1012.7 hPa | 0 mm | - | - | - |
| 1777818840 | 14.44° C | 83% | 1012.7 hPa | 0 mm | - | - | - |
| 1777818290 | 14.44° C | 83% | 1012.7 hPa | 0 mm | - | - | - |
| 1777817785 | 15° C | 83% | 1012.6 hPa | 0 mm | - | - | - |
| 1777817230 | 15° C | 83% | 1012.5 hPa | 0 mm | - | - | - |
| 1777816668 | 15° C | 83% | 1012.5 hPa | 0 mm | - | - | - |
| 1777815645 | 14.44° C | 86% | 1012.5 hPa | 0 mm | - | - | - |
| 1777815154 | 14.44° C | 88% | 1012.4 hPa | 0 mm | - | - | - |
| 1777814605 | 13.89° C | 88% | 1012.4 hPa | 0 mm | - | - | - |
| 1777814037 | 13.89° C | 88% | 1012.3 hPa | 0 mm | - | - | - |
| 1777813550 | 13.89° C | 88% | 1012.3 hPa | 0 mm | - | - | - |
| 1777812953 | 13.89° C | 89% | 1012.3 hPa | 0 mm | - | - | - |
| 1777812473 | 13.89° C | 90% | 1012.3 hPa | 0 mm | - | - | - |
| 1777811895 | 13.89° C | 90% | 1012.3 hPa | 0 mm | - | - | - |
| 1777810845 | 13.89° C | 90% | 1012.4 hPa | 0 mm | - | - | - |
| 1777810328 | 13.89° C | 89% | 1012.4 hPa | 0 mm | - | - | - |
| 1777809733 | 13.89° C | 89% | 1012.4 hPa | 0 mm | - | - | - |
* Rain latest hour (hover to see other rain measurements)
** Current wind speed in m/s (hover to see current wind gust speed)